Home   Weather   Nea Smyrni   Past weeks

Flag for Greece Past Weather in Nea Smyrni, Greece — Yesterday and Last 2 Weeks

Now
48 °F

Light rain. Mostly cloudy.


Feels Like: 45 °F
Forecast: 43 / 48 °F
Wind: 8 mph from North

Location: Eleftherios Venizelos International Airport

Current Time: Jan 24, 2017 at 7:34:48 pm

Latest Report: Jan 24, 2017 at 6:50 pm


Visibility: N/A

Pressure: 29.89 "Hg

Humidity: 76%

Dew Point: 41 °F

Location of Nea SmyrniLocation

Past Weather in Nea Smyrni — Graph

°F

Nea Smyrni Temperature Yesterday

Maximum temperature yesterday: 48 °F (at 9:50 am)
Minimum temperature yesterday: 43 °F (at 3:20 am)
Average temperature yesterday: 46 °F

High & Low Weather Summary for the Past Weeks

 TemperatureHumidityPressure
High63 °F (Jan 14, 12:20 pm)100% (Jan 17, 4:50 am)30.45 "Hg (Jan 17, 4:50 am)
Low30 °F (Jan 9, 8:50 pm)24% (Jan 15, 12:20 pm)29.71 "Hg (Jan 14, 12:50 pm)
Average47 °F71%30.08 "Hg
* Reported Jan 9 6:20 pm — Jan 24 6:20 pm, Nea Smyrni, Weather by CustomWeather, © 2017

Note: Actual official high and low records may vary slightly from our data, if they occured in-between our weather recording intervals... More about our weather records

Advertising

Nea Smyrni Weather History for the Previous 24 Hours

Scroll right to see more
 ConditionsComfort  
Time TempWeatherWind HumidityBarometerVisibility
6:20 pm
Tue, Jan 24
48 °FMostly cloudy.6 mph76%29.89 "HgN/A
5:50 pm48 °FLight rain. Mostly cloudy.3 mph76%29.89 "HgN/A
5:20 pm48 °FMostly cloudy.3 mph82%29.89 "HgN/A
4:50 pm48 °FMostly cloudy.13 mph82%29.89 "HgN/A
4:20 pm48 °FMore clouds than sun.7 mph87%29.89 "HgN/A
3:50 pm48 °FRain. Mostly cloudy.10 mph87%29.92 "Hg5 mi
3:20 pm48 °FRain. Mostly cloudy.12 mph87%29.92 "Hg4 mi
2:50 pm48 °FLight rain. Mostly cloudy.13 mph87%29.92 "Hg4 mi
2:20 pm48 °FMostly cloudy.10 mph82%29.92 "Hg6 mi
1:50 pm48 °FMostly cloudy.12 mph82%29.92 "Hg6 mi
1:20 pm48 °FDrizzle. Mostly cloudy.10 mph76%29.95 "Hg5 mi
12:50 pm48 °FMostly cloudy.14 mph76%29.98 "HgN/A
12:20 pm48 °FMostly cloudy.13 mph76%29.98 "Hg6 mi
11:50 am48 °FMostly cloudy.12 mph76%30.01 "HgN/A
11:20 am48 °FPartly sunny.10 mph76%30.01 "HgN/A
10:50 am46 °FPartly sunny.10 mph82%30.01 "HgN/A
10:20 am46 °FDrizzle. Partly sunny.14 mph82%30.01 "Hg6 mi
9:50 am46 °FDrizzle. Partly sunny.12 mph82%30.01 "HgN/A
9:20 am46 °FPartly sunny.10 mph82%30.04 "HgN/A
8:50 am46 °FDrizzle. Partly sunny.12 mph82%30.01 "HgN/A
8:20 am45 °FPartly sunny.9 mph81%30.04 "HgN/A
7:50 am45 °FPartly sunny.12 mph81%30.04 "HgN/A
7:20 am45 °FPassing clouds.13 mph81%30.04 "HgN/A
6:50 am45 °FPassing clouds.13 mph81%30.04 "HgN/A
6:20 am45 °FLight rain. Passing clouds.18 mph93%30.04 "HgN/A
5:50 am45 °FLight rain. Passing clouds.17 mph87%30.04 "HgN/A
5:20 am45 °FLight rain. Passing clouds.16 mph87%30.07 "HgN/A
4:50 am45 °FLight rain. Passing clouds.14 mph87%30.07 "HgN/A
4:20 am45 °FLight rain. Passing clouds.14 mph87%30.09 "HgN/A
3:50 am45 °FLight rain. Passing clouds.13 mph87%30.09 "Hg2 mi
3:20 am45 °FLight rain. Passing clouds.17 mph87%30.09 "HgN/A
2:50 am45 °FLight rain. Passing clouds.17 mph87%30.09 "HgN/A
2:20 am45 °FLight rain. Partly cloudy.14 mph87%30.12 "HgN/A
1:50 am45 °FLight rain. Partly cloudy.12 mph81%30.12 "HgN/A
1:20 am45 °FLight rain. Partly cloudy.12 mph81%30.15 "HgN/A
12:50 am45 °FLight rain. Partly cloudy.13 mph76%30.15 "HgN/A
12:20 am46 °FLight rain. Partly cloudy.15 mph71%30.15 "HgN/A
11:50 pm
Mon, Jan 23
46 °FPartly cloudy.15 mph71%30.15 "HgN/A
11:20 pm46 °FLight rain. Partly cloudy.15 mph71%30.15 "HgN/A
10:50 pm46 °FPartly cloudy.16 mph71%30.18 "HgN/A
10:20 pm46 °FPassing clouds.9 mph66%30.18 "HgN/A
9:50 pm46 °FPassing clouds.8 mph66%30.21 "HgN/A
9:20 pm46 °FPassing clouds.8 mph66%30.21 "HgN/A
8:50 pm46 °FPassing clouds.9 mph66%29.92 "HgN/A
8:20 pm46 °FClear.8 mph66%30.21 "Hg10 mi
7:50 pm46 °FPassing clouds.10 mph66%30.21 "HgN/A
7:20 pm46 °FPassing clouds.9 mph66%30.24 "HgN/A
Weather by CustomWeather, © 2017

See weather overviewHow to use our weather pages